Location: *
(46.4000°N, 12.6667°E)
Time: 15:07:18
(UTC+00:00)

Envisat - Pass Details

Date: 07 March 2021
Orbit: 764 x 766 km, 98.1° (Epoch: 17 April)

Event Time Altitude Azimuth Distance (km) Brightness Sun altitude
Rises 04:09:30 0° 21° (NNE) 3,244 6.7 -15.9°
Reaches altitude 10° 04:12:02 10° 31° (NNE) 2,312 6.0 -15.5°
Maximum altitude 04:16:39 34° 96° (E) 1,247 4.8 -14.7°
Drops below altitude 10° 04:21:14 10° 161° (SSE) 2,295 5.6 -13.9°
Sets 04:23:43 0° 170° (S) 3,216 6.3 -13.5°
